Regional Weather Roundup
Issued by NWS Cleveland, OH

Home | Current Version | Previous Version | Graphics & Text | Print | Product List | Glossary On
Versions: 1 2 3 4 5 6 7 8 9 10 11 12 13 14 15 16 17 18 19 20 21 22 23 24 25 26 27 28 29 30 31 32 33 34 35 36 37 38 39 40 41 42 43 44 45 46 47 48 49 50
000
ASUS41 KCLE 300500
RWRCLE
OHIO REGIONAL WEATHER ROUNDUP
NATIONAL WEATHER SERVICE WILMINGTON, OH
100 AM EDT THU OCT 30 2014

NOTE: "FAIR" INDICATES FEW OR NO CLOUDS BELOW 12,000 FEET WITH NO
SIGNIFICANT WEATHER AND/OR OBSTRUCTIONS TO VISIBILITY.

OHZ001>008-015>018-024>027-034-035-043-044-300600-
   NORTHWEST OHIO

CITY           SKY/WX    TMP DP  RH WIND       PRES   REMARKS
DEFIANCE       CLOUDY    44  38  79 W6        30.11F
FINDLAY        CLOUDY    44  37  76 W7        30.10S
TOLEDO EXPRESS CLOUDY    42  38  85 W6        30.10S
TOLEDO METCALF PTCLDY    39  35  86 W7        30.11R
LIMA           CLOUDY    44  36  73 W8        30.11S
$$

OHZ009>014-019>023-028>033-038-089-300600-
   NORTHEAST OHIO

CITY           SKY/WX    TMP DP  RH WIND       PRES   REMARKS
CLE-HOPKINS    CLOUDY    43  40  89 SW8       30.09S
CLE-LAKEFRONT  MOCLDY   N/A N/A N/A NW16      30.06
CUY CO. ARPT   NOT AVBL
LORAIN-ELYRIA  PTCLDY    41  37  86 W8        30.08S
ASHTABULA      MOCLDY    42  40  92 W3        30.05S
AKRON-CANTON   CLOUDY    45  36  70 W6        30.06S
WOOSTER        NOT AVBL
MANSFIELD      CLOUDY    40  36  86 W6        30.08S
YOUNGSTOWN     LGT RAIN  43  39  86 W7        30.04S
$$

OHZ042-051>053-060>062-070>072-077>081-300600-
  SOUTHWEST OHIO

CITY           SKY/WX    TMP DP  RH WIND       PRES   REMARKS
CINC-COVINGTON MOCLDY    43  35  73 NW3       30.13S
CINC-LUNKEN    CLOUDY    43  37  79 CALM      30.15S
HAMILTON       CLOUDY    47  36  65 NW6       30.15S
DAYTON         NOT AVBL
WRIGHT-PAT AFB CLOUDY    45  35  67 NW8       30.12S
DAYTON GENERAL CLOUDY    45  35  68 NW7       30.12S
WILMINGTON     CLOUDY    45  34  65 NW6       30.12R
$$

OHZ036-037-039>041-045>050-054>059-063>069-073>076-082>088-300600-
  CENTRAL AND SOUTHEAST OHIO

CITY           SKY/WX    TMP DP  RH WIND       PRES   REMARKS
COLUMBUS       CLOUDY    45  34  65 NW9       30.10S
OSU AIRPORT    CLOUDY    45  35  68 NW10      30.10S
BOLTON FIELD   NOT AVBL
RICKENBACK AFB NOT AVBL
NEWARK         CLOUDY    43  33  68 NW5       30.09S
MARION         CLOUDY    43  36  76 NW8       30.10S
LANCASTER      CLOUDY    45  34  65 NW5       30.10F
ZANESVILLE     CLEAR     41  33  73 W3        30.09S
NEW PHILLY     CLEAR     44  35  70 NW5       30.09
$$



USA.gov is the U.S. government's official web portal to all federal, state and local government web resources and services.